K5TWC Weather Reports


time (UTC)temp
F
wind
direction
speed
knots
gust
knots
rain 1hr
in
rain 24hr
in
rain mn
in
humidity
%
barometer
mb
20260510073511 74 86 0.0 6.1 0.00 0.00 0.00 89 1011.1
20260510073031 74 134 0.9 9.6 0.00 0.00 0.00 89 1010.9
20260510072507 74 150 1.7 9.6 0.00 0.00 0.00 89 1010.7
20260510072013 75 140 4.3 12.2 0.00 0.00 0.00 89 1010.7
20260510071512 75 360 6.1 12.2 0.00 0.00 0.00 88 1010.9
20260510071004 75 125 2.6 7.0 0.00 0.00 0.00 88 1011.3
20260510070503 75 58 0.0 4.3 0.00 0.00 0.00 88 1011.8
20260510070016 75 43 0.0 4.3 0.00 0.00 0.00 87 1012.1
20260510065507 75 53 0.9 7.0 0.00 0.00 0.00 87 1012.4
20260510065004 76 336 0.9 7.0 0.00 0.00 0.00 86 1012.3
20260510064520 76 9 0.9 7.0 0.00 0.00 0.00 86 1012.3
20260510064008 76 317 2.6 7.0 0.00 0.00 0.00 85 1012.4
20260510063507 76 319 0.9 3.5 0.00 0.00 0.00 84 1012.3
20260510063033 76 316 0.0 2.6 0.00 0.00 0.00 84 1012.3
20260510062511 76 315 0.0 3.5 0.00 0.00 0.00 84 1012.3
20260510062010 76 315 0.9 3.5 0.00 0.00 0.00 84 1012.4
20260510061526 76 360 0.0 5.2 0.00 0.00 0.00 83 1012.2
20260510061011 76 130 0.0 5.2 0.00 0.00 0.00 83 1011.7
20260510060511 76 131 0.9 7.8 0.00 0.00 0.00 84 1011.2
20260510060019 76 135 0.9 7.0 0.00 0.00 0.00 84 1010.7
20260510055503 76 126 1.7 6.1 0.00 0.00 0.00 84 1010.6
20260510055006 76 136 0.9 6.1 0.00 0.00 0.00 84 1010.5
20260510054518 76 129 1.7 6.1 0.00 0.00 0.00 85 1010.5
20260510054007 76 131 1.7 6.1 0.00 0.00 0.00 85 1010.6
20260510053511 76 360 0.9 7.8 0.00 0.00 0.00 85 1010.3
20260510053023 76 160 2.6 7.8 0.00 0.00 0.00 85 1010.0
20260510052506 76 116 0.0 7.8 0.00 0.00 0.00 85 1010.0
20260510052008 76 159 0.9 7.8 0.00 0.00 0.00 85 1010.2
20260510051531 76 144 1.7 7.8 0.00 0.00 0.00 85 1010.2
20260510051008 76 154 1.7 7.8 0.00 0.00 0.00 85 1010.2
20260510050509 76 127 1.7 10.4 0.00 0.00 0.00 85 1010.1
20260510050029 76 131 2.6 11.3 0.00 0.00 0.00 85 1010.1
20260510045511 76 132 5.2 12.2 0.00 0.00 0.00 84 1010.0
20260510045012 76 119 1.7 12.2 0.00 0.00 0.00 84 1009.9
20260510044515 76 360 3.5 12.2 0.00 0.00 0.00 84 1009.6
20260510044003 76 141 3.5 9.6 0.00 0.00 0.00 83 1009.4
20260510043510 76 360 2.6 9.6 0.00 0.00 0.00 83 1009.5
20260510043025 76 132 3.5 9.6 0.00 0.00 0.00 82 1009.4
20260510042508 76 360 2.6 7.8 0.00 0.00 0.00 81 1009.5
20260510042007 77 360 0.9 7.0 0.00 0.00 0.00 80 1009.7
20260510041525 77 360 0.9 4.3 0.00 0.00 0.00 79 1009.9
20260510041007 77 93 0.0 5.2 0.00 0.00 0.00 77 1010.1
20260510040508 77 360 0.9 5.2 0.00 0.00 0.00 77 1010.1
20260510040029 77 360 0.0 3.5 0.00 0.00 0.00 76 1010.0
20260510035509 77 360 0.0 2.6 0.00 0.00 0.00 76 1010.0
20260510035013 77 360 0.0 4.3 0.00 0.00 0.00 75 1010.0
20260510034533 77 360 0.9 4.3 0.00 0.00 0.00 75 1009.8
20260510034013 77 127 0.0 0.0 0.00 0.00 0.00 76 1009.8
20260510033507 76 360 0.0 0.0 0.00 0.00 0.00 76 1009.7
20260510033016 76 360 0.0 0.0 0.00 0.00 0.00 76 1009.8
20260510032504 76 128 0.0 0.0 0.00 0.00 0.00 76 1009.9
20260510032009 76 360 0.0 0.0 0.00 0.00 0.00 76 1009.9
20260510031524 76 360 0.0 0.0 0.00 0.00 0.00 76 1010.0
20260510031007 76 360 0.0 0.0 0.00 0.00 0.00 75 1010.0
20260510030512 76 360 0.0 2.6 0.00 0.00 0.00 75 1010.0
20260510030010 77 360 0.0 2.6 0.00 0.00 0.00 75 1009.9
20260510025503 77 360 0.0 2.6 0.00 0.00 0.00 75 1009.9
20260510025004 77 360 0.0 2.6 0.00 0.00 0.00 75 1009.9
20260510024507 77 360 0.0 2.6 0.00 0.00 0.00 74 1009.9
20260510024006 77 360 0.0 2.6 0.00 0.00 0.00 74 1009.8
20260510023504 78 360 0.0 1.7 0.00 0.00 0.00 73 1009.9
20260510023010 78 360 0.0 1.7 0.00 0.00 0.00 73 1009.8
20260510022504 78 360 0.0 1.7 0.00 0.00 0.00 72 1009.7
20260510022004 78 360 0.0 1.7 0.00 0.00 0.00 72 1009.7
20260510021523 78 360 0.0 1.7 0.00 0.00 0.00 71 1009.5
20260510021008 78 360 0.0 1.7 0.00 0.00 0.00 71 1009.5
20260510020504 79 360 0.0 0.9 0.00 0.00 0.00 71 1009.5
20260510020007 79 360 0.0 0.9 0.00 0.00 0.00 70 1009.4
20260510015504 79 360 0.0 0.9 0.00 0.00 0.00 69 1009.4
20260510015005 79 360 0.0 0.9 0.00 0.00 0.00 68 1009.4
20260510014507 80 113 0.0 0.9 0.00 0.00 0.00 68 1009.3
20260510014004 80 113 0.0 1.7 0.00 0.00 0.00 67 1009.3
20260510013502 80 113 0.0 2.6 0.00 0.00 0.00 66 1009.2
20260510013009 80 360 0.0 2.6 0.00 0.00 0.00 66 1009.1
20260510012505 81 360 0.0 2.6 0.00 0.00 0.00 65 1009.1
20260510012006 81 360 0.0 2.6 0.00 0.00 0.00 65 1009.0
20260510011510 81 360 0.0 2.6 0.00 0.00 0.00 64 1008.9
20260510011004 82 360 0.0 1.7 0.00 0.00 0.00 63 1008.8
20260510010505 82 360 0.0 1.7 0.00 0.00 0.00 63 1008.7
20260510010010 82 360 0.0 1.7 0.00 0.00 0.00 62 1008.6
20260510005502 83 360 0.0 1.7 0.00 0.00 0.00 63 1008.5
20260510005004 83 360 0.0 0.9 0.00 0.00 0.00 63 1008.5
20260510004504 83 360 0.0 2.6 0.00 0.00 0.00 62 1008.6
20260510004004 83 360 0.0 2.6 0.00 0.00 0.00 61 1008.6
20260510003502 84 360 0.0 2.6 0.00 0.00 0.00 60 1008.6
20260510003008 84 101 0.0 2.6 0.00 0.00 0.00 59 1008.5
20260510002501 84 360 0.9 5.2 0.00 0.00 0.00 58 1008.6
20260510002003 84 360 0.0 5.2 0.00 0.00 0.00 58 1008.6
20260510001508 85 360 0.9 5.2 0.00 0.00 0.00 57 1008.7
20260510001003 85 360 0.0 4.3 0.00 0.00 0.00 57 1008.7
20260510000502 85 46 1.7 4.3 0.00 0.00 0.00 56 1008.7
20260510000017 85 360 0.9 3.5 0.00 0.00 0.00 55 1008.6
20260509235502 85 360 0.9 4.3 0.00 0.00 0.00 55 1008.5
20260509235004 85 360 0.9 4.3 0.00 0.00 0.00 55 1008.5
20260509234512 86 360 1.7 4.3 0.00 0.00 0.00 54 1008.5
20260509234003 86 360 0.9 4.3 0.00 0.00 0.00 53 1008.5
20260509233503 86 360 0.9 4.3 0.00 0.00 0.00 54 1008.5
20260509233004 86 360 0.0 2.6 0.00 0.00 0.00 53 1008.5
20260509232502 86 360 0.9 3.5 0.00 0.00 0.00 53 1008.7
20260509232002 86 360 1.7 4.3 0.00 0.00 0.00 53 1008.7
20260509231512 86 360 0.9 4.3 0.00 0.00 0.00 53 1008.8
20260509231003 86 360 0.9 4.3 0.00 0.00 0.00 52 1008.7
20260509230506 86 72 0.9 3.5 0.00 0.00 0.00 54 1008.7
20260509230012 86 83 0.0 3.5 0.00 0.00 0.00 52 1008.7
20260509225504 86 360 0.9 3.5 0.00 0.00 0.00 52 1008.7
20260509225002 86 360 0.0 3.5 0.00 0.00 0.00 51 1008.7
20260509224514 86 360 0.9 4.3 0.00 0.00 0.00 52 1008.6
20260509224006 86 360 0.9 4.3 0.00 0.00 0.00 53 1008.6
20260509223506 86 360 0.9 4.3 0.00 0.00 0.00 55 1008.6
20260509223016 86 82 0.0 4.3 0.00 0.00 0.00 55 1008.6
20260509222504 86 360 0.9 3.5 0.00 0.00 0.00 54 1008.5
20260509222006 86 62 0.9 7.0 0.00 0.00 0.00 54 1008.5
20260509221510 86 360 1.7 7.0 0.00 0.00 0.00 54 1008.5
20260509221004 87 79 0.9 4.3 0.00 0.00 0.00 53 1008.6
20260509220503 86 53 0.9 4.3 0.00 0.00 0.00 54 1008.5
20260509220013 86 86 0.9 7.0 0.00 0.00 0.00 52 1008.6
20260509215507 86 40 1.7 7.0 0.00 0.00 0.00 51 1008.6
20260509215008 86 93 1.7 6.1 0.00 0.00 0.00 56 1008.7
20260509214516 86 29 0.9 5.2 0.00 0.00 0.00 54 1008.8
20260509214008 86 55 1.7 5.2 0.00 0.00 0.00 57 1008.8
20260509213506 86 87 0.0 6.1 0.00 0.00 0.00 57 1008.8
20260509213018 86 52 0.9 6.1 0.00 0.00 0.00 55 1008.9
20260509212504 86 67 0.0 5.2 0.00 0.00 0.00 57 1008.9
20260509212007 86 91 0.0 7.0 0.00 0.00 0.00 57 1009.0
20260509211516 86 360 0.9 7.0 0.00 0.00 0.00 58 1009.1
20260509211006 86 75 3.5 7.0 0.00 0.00 0.00 56 1009.1
20260509210506 87 98 0.9 5.2 0.00 0.00 0.00 56 1009.2
20260509210012 87 73 0.0 5.2 0.00 0.00 0.00 55 1009.2
20260509205502 87 360 0.0 5.2 0.00 0.00 0.00 59 1009.4
20260509205005 86 129 0.9 7.0 0.00 0.00 0.00 58 1009.5
20260509204518 85 360 3.5 7.0 0.00 0.00 0.00 57 1009.6
20260509204004 86 360 1.7 5.2 0.00 0.00 0.00 58 1009.7
20260509203507 86 47 0.9 5.2 0.00 0.00 0.00 59 1009.7
20260509203019 86 34 0.9 4.3 0.00 0.00 0.00 59 1009.8
20260509202507 85 88 1.7 4.3 0.00 0.00 0.00 60 1009.9
20260509202011 85 314 0.9 4.3 0.00 0.00 0.00 61 1009.9
20260509201520 85 123 0.9 6.1 0.00 0.00 0.00 63 1009.9
20260509201010 85 360 1.7 6.1 0.00 0.00 0.00 63 1010.0
20260509200503 84 360 1.7 7.0 0.00 0.00 0.00 63 1010.0
20260509200019 84 42 2.6 7.0 0.00 0.00 0.00 64 1010.0
20260509195507 84 360 1.7 7.0 0.00 0.00 0.00 63 1009.9
20260509195006 85 111 2.6 7.0 0.00 0.00 0.00 63 1010.0
20260509194510 85 51 0.9 5.2 0.00 0.00 0.00 66 1010.0
20260509194004 84 360 0.9 5.2 0.00 0.00 0.00 63 1010.1
20260509193508 84 307 0.9 7.0 0.00 0.00 0.00 66 1010.2
20260509193016 83 53 1.7 8.7 0.00 0.00 0.00 66 1010.2
20260509192507 84 360 3.5 8.7 0.00 0.00 0.00 66 1010.3
20260509192007 83 37 0.0 7.8 0.00 0.00 0.00 68 1010.3
20260509191518 83 46 0.9 7.8 0.00 0.00 0.00 68 1010.3
20260509191007 83 331 0.0 7.0 0.00 0.00 0.00 68 1010.4
20260509190506 83 59 1.7 7.0 0.00 0.00 0.00 68 1010.4
20260509190021 83 36 0.9 7.8 0.00 0.00 0.00 70 1010.4
20260509185506 83 69 0.9 7.8 0.00 0.00 0.00 69 1010.4
20260509185007 82 44 0.9 7.0 0.00 0.00 0.00 70 1010.4
20260509184523 82 61 3.5 8.7 0.00 0.00 0.00 70 1010.4
20260509184011 83 43 2.6 8.7 0.00 0.00 0.00 70 1010.4
20260509183504 82 321 0.0 7.8 0.00 0.00 0.00 70 1010.4
20260509183015 82 360 1.7 7.8 0.00 0.00 0.00 71 1010.5
20260509182505 82 25 0.0 9.6 0.00 0.00 0.00 71 1010.6
20260509182004 82 360 3.5 9.6 0.00 0.00 0.00 72 1010.6
20260509181520 81 70 2.6 7.8 0.00 0.00 0.00 71 1010.7
20260509181007 82 360 2.6 7.0 0.00 0.00 0.00 71 1010.6
20260509180504 82 288 1.7 6.1 0.00 0.00 0.00 71 1010.8
20260509180020 82 28 1.7 7.0 0.00 0.00 0.00 71 1010.9
20260509175506 81 68 1.7 7.0 0.00 0.00 0.00 71 1010.9
20260509175003 81 321 0.9 6.1 0.00 0.00 0.00 72 1011.0
20260509174506 81 319 0.0 7.0 0.00 0.00 0.00 73 1011.0
20260509174005 81 39 2.6 7.0 0.00 0.00 0.00 72 1011.0
20260509173503 81 34 1.7 7.0 0.00 0.00 0.00 73 1011.0
20260509173011 81 58 1.7 6.1 0.00 0.00 0.00 74 1011.1
20260509172504 81 342 0.0 3.5 0.00 0.00 0.00 73 1011.1
20260509172005 80 347 0.0 5.2 0.00 0.00 0.00 74 1011.1
20260509171525 80 49 1.7 5.2 0.00 0.00 0.00 74 1011.2
20260509171004 80 313 1.7 5.2 0.00 0.00 0.00 74 1011.2
20260509170507 80 310 1.7 7.0 0.00 0.00 0.00 74 1011.2
20260509170028 80 309 1.7 7.0 0.00 0.00 0.00 74 1011.2
20260509165508 80 10 0.9 7.0 0.00 0.00 0.00 75 1011.1
20260509165008 79 5 1.7 7.8 0.00 0.00 0.00 74 1011.2
20260509164522 79 328 3.5 7.8 0.00 0.00 0.00 75 1011.2
20260509164006 79 360 2.6 7.8 0.00 0.00 0.00 75 1011.1
20260509163503 79 360 1.7 8.7 0.00 0.00 0.00 75 1011.2
20260509163010 79 329 1.7 8.7 0.00 0.00 0.00 75 1011.2
20260509162506 78 333 0.9 5.2 0.00 0.00 0.00 77 1011.2
20260509162006 78 29 0.0 8.7 0.00 0.00 0.00 77 1011.1
20260509161511 78 312 2.6 8.7 0.00 0.00 0.00 76 1011.1
20260509161003 77 360 1.7 7.8 0.00 0.00 0.00 78 1011.2
20260509160503 77 360 3.5 7.8 0.00 0.00 0.00 77 1011.2
20260509160018 77 311 1.7 7.8 0.00 0.00 0.00 78 1011.2
20260509155505 77 317 1.7 7.8 0.00 0.00 0.00 79 1011.2
20260509155008 76 329 2.6 7.0 0.00 0.00 0.00 78 1011.0
20260509154520 77 278 1.7 5.2 0.00 0.00 0.00 79 1011.1
20260509154010 77 360 1.7 5.2 0.00 0.00 0.00 79 1011.1
20260509153506 76 319 0.9 5.2 0.00 0.00 0.00 80 1011.1
20260509153024 76 323 0.9 7.0 0.00 0.00 0.00 80 1011.0
20260509152505 76 338 2.6 7.0 0.00 0.00 0.00 81 1010.9
20260509152006 76 346 1.7 7.0 0.00 0.00 0.00 81 1010.9
20260509151512 76 323 0.0 5.2 0.00 0.00 0.00 83 1010.9
20260509151004 75 325 0.9 5.2 0.00 0.00 0.00 83 1011.0
20260509150504 75 302 0.9 6.1 0.00 0.00 0.00 83 1011.0
20260509150021 75 351 1.7 6.1 0.00 0.00 0.00 83 1011.1
20260509145504 74 344 0.0 5.2 0.00 0.00 0.00 84 1011.2
20260509145004 74 329 1.7 5.2 0.00 0.00 0.00 84 1011.2
20260509144528 74 309 0.0 6.1 0.00 0.00 0.00 84 1011.2
20260509144012 73 290 0.0 6.1 0.00 0.00 0.00 85 1011.2
20260509143504 73 304 0.9 7.0 0.00 0.00 0.00 85 1011.2
20260509143023 73 360 0.9 7.0 0.00 0.00 0.00 85 1011.1
20260509142508 73 294 0.0 7.0 0.00 0.00 0.00 86 1011.1
20260509142008 73 317 1.7 7.0 0.00 0.00 0.00 86 1011.1
20260509141525 73 315 1.7 6.1 0.00 0.00 0.00 87 1011.0
20260509141007 72 305 2.6 7.0 0.00 0.00 0.00 87 1010.9
20260509140503 72 267 0.9 7.0 0.00 0.00 0.00 87 1010.9
20260509140010 72 258 0.9 5.2 0.00 0.00 0.00 87 1010.9
20260509135503 72 275 0.9 4.3 0.00 0.00 0.00 88 1010.7
20260509135004 72 292 0.9 4.3 0.00 0.00 0.00 88 1010.6
20260509134515 72 295 0.0 3.5 0.00 0.00 0.00 88 1010.7
20260509134010 72 274 0.0 3.5 0.00 0.00 0.00 89 1010.8
20260509133504 72 273 0.0 5.2 0.00 0.00 0.00 89 1010.8
20260509133023 72 274 0.0 5.2 0.00 0.00 0.00 89 1010.7
20260509132511 72 272 0.0 5.2 0.00 0.00 0.00 89 1010.6
20260509132006 72 271 1.7 5.2 0.00 0.00 0.00 89 1010.6
20260509131538 72 191 0.0 0.0 0.00 0.00 0.00 90 1010.6
20260509131009 72 190 0.0 0.0 0.00 0.00 0.00 90 1010.6
20260509130508 72 155 0.0 0.0 0.00 0.00 0.00 91 1010.4
20260509130028 72 155 0.0 0.0 0.00 0.00 0.00 91 1010.4
20260509125507 72 155 0.0 0.9 0.00 0.00 0.00 92 1010.5
20260509125006 72 155 0.0 0.9 0.00 0.00 0.00 92 1010.6
20260509124516 71 153 0.0 0.9 0.00 0.00 0.00 93 1010.5
20260509124004 71 153 0.0 0.0 0.00 0.00 0.00 93 1010.4
20260509123506 70 153 0.0 0.0 0.00 0.00 0.00 94 1010.6
20260509123020 70 153 0.0 0.9 0.00 0.00 0.00 93 1010.6
20260509122504 70 153 0.0 0.9 0.00 0.00 0.00 93 1010.5
20260509122008 70 153 0.0 0.0 0.00 0.00 0.00 93 1010.5
20260509121526 70 153 0.0 0.0 0.00 0.00 0.00 93 1010.4
20260509121005 70 153 0.0 0.0 0.00 0.00 0.00 93 1010.4
20260509120507 70 153 0.0 0.0 0.00 0.00 0.00 93 1010.4
20260509120026 70 153 0.0 0.0 0.00 0.00 0.00 93 1010.4
20260509115507 70 153 0.0 0.9 0.00 0.00 0.00 93 1010.4
20260509115009 70 153 0.0 0.9 0.00 0.00 0.00 92 1010.2
20260509114531 70 153 0.0 1.7 0.00 0.00 0.00 92 1010.1
20260509114009 70 153 0.0 1.7 0.00 0.00 0.00 92 1010.1
20260509113506 70 154 0.0 2.6 0.00 0.00 0.00 92 1010.1
20260509113016 70 155 0.0 5.2 0.00 0.00 0.00 92 1010.0
20260509112503 70 156 0.0 5.2 0.00 0.00 0.00 92 1009.9
20260509112004 70 156 0.0 5.2 0.00 0.00 0.00 92 1009.9
20260509111521 70 157 0.0 2.6 0.00 0.00 0.00 92 1009.9
20260509111009 70 163 0.0 0.9 0.00 0.00 0.00 92 1009.9
20260509110507 70 164 0.0 2.6 0.00 0.00 0.00 92 1009.8
20260509110024 70 164 0.0 3.5 0.00 0.00 0.00 92 1009.6
20260509105508 70 157 0.0 3.5 0.00 0.00 0.00 92 1009.5
20260509105007 70 161 0.0 3.5 0.00 0.00 0.00 92 1009.5
20260509104527 70 162 0.0 1.7 0.00 0.00 0.00 92 1009.5
20260509104008 70 163 0.0 0.0 0.00 0.00 0.00 92 1009.5
20260509103508 70 163 0.0 0.0 0.00 0.00 0.00 92 1009.6
20260509103029 70 163 0.0 0.0 0.00 0.00 0.00 92 1009.5
20260509102507 70 163 0.0 0.0 0.00 0.00 0.00 92 1009.6
20260509102006 70 163 0.0 0.0 0.00 0.00 0.00 92 1009.5
20260509101531 70 163 0.0 0.0 0.00 0.00 0.00 92 1009.6
20260509101008 70 163 0.0 0.0 0.00 0.00 0.00 92 1009.6
20260509100507 70 163 0.0 0.0 0.00 0.00 0.00 92 1009.7
20260509100024 70 163 0.0 0.0 0.00 0.00 0.00 92 1009.6
20260509095508 70 163 0.0 0.0 0.00 0.00 0.00 92 1009.4
20260509095007 70 163 0.0 0.0 0.00 0.00 0.00 92 1009.4
20260509094522 70 163 0.0 0.9 0.00 0.00 0.00 91 1009.3
20260509094010 70 163 0.0 0.9 0.00 0.00 0.00 91 1009.2
20260509093508 70 162 0.0 4.3 0.00 0.00 0.00 91 1009.0
20260509093028 70 153 0.0 4.3 0.00 0.00 0.00 91 1008.7
20260509092509 70 157 0.9 6.1 0.00 0.00 0.00 91 1008.0
20260509092013 70 150 0.9 8.7 0.00 0.00 0.00 91 1007.8
20260509091528 70 157 0.9 8.7 0.00 0.00 0.00 91 1007.8
20260509091008 70 138 1.7 8.7 0.00 0.00 0.00 91 1007.7
20260509090508 70 124 3.5 7.8 0.00 0.00 0.00 90 1007.8
20260509090018 70 138 1.7 8.7 0.00 0.00 0.00 90 1008.0
20260509085508 70 126 0.9 9.6 0.00 0.00 0.00 90 1008.1
20260509085010 70 117 1.7 10.4 0.00 0.00 0.00 90 1008.2
20260509084523 70 138 1.7 10.4 0.00 0.00 0.00 90 1008.4
20260509084008 70 360 1.7 8.7 0.00 0.00 0.00 90 1008.5
20260509083510 70 156 3.5 7.0 0.00 0.00 0.00 90 1008.8
20260509083028 70 199 1.7 7.0 0.00 0.00 0.00 90 1009.0
20260509082507 70 155 0.9 8.7 0.00 0.00 0.00 90 1009.2
20260509082009 70 360 2.6 8.7 0.00 0.00 0.00 90 1009.4
20260509081531 70 132 1.7 7.8 0.00 0.00 0.00 90 1009.6
20260509081010 70 360 0.9 7.8 0.00 0.00 0.00 90 1009.8
20260509080510 70 156 0.9 4.3 0.00 0.00 0.00 90 1009.9
20260509080026 70 143 0.9 4.3 0.00 0.00 0.00 89 1010.2
20260509075506 70 154 0.0 4.3 0.00 0.00 0.00 89 1010.2
20260509075008 70 217 0.0 0.9 0.00 0.00 0.00 89 1010.4
20260509074518 70 230 0.0 0.9 0.00 0.00 0.00 90 1010.6
20260509074006 70 230 0.0 0.9 0.00 0.00 0.00 90 1010.8